Terminal Aerodrome Forecast
Issued by NWS Billings, MT

Home | Current Version | Previous Version | Text Only | Print | Product List | Glossary On
Versions: 1 2 3 4 5 6 7 8 9 10 11 12 13 14 15 16
000
FTUS45 KBYZ 232336
TAFSHR
TAF
KSHR 232336Z 2400/2424 VRB05KT P6SM FEW090 BKN200
     FM240600 25020G35KT P6SM FEW060
     FM241000 32020G35KT P6SM VCSH SCT025 OVC040
     FM241100 36025G40KT P6SM -RA BKN015 OVC025
     FM241400 35025G35KT P6SM VCSH SCT020 BKN040
     FM241600 35022G30KT P6SM FEW050=

USA.gov is the U.S. government's official web portal to all federal, state and local government web resources and services.